EW3197 Weather Reports


Display with metric or nautical units.
time (UTC)temp
F
wind
direction
speed
MPH
gust
MPH
rain 1hr
in
rain 24hr
in
rain mn
in
humidity
%
barometer
mb
20260831031205 66 333 0.0 0.0 0.00 0.05 0.05 89 1018.9
20260831030204 66 333 0.0 0.0 0.00 0.05 0.05 89 1018.8
20260831025205 67 333 0.0 0.0 0.00 0.05 0.05 89 1018.8
20260831024704 67 333 0.0 0.0 0.00 0.05 0.05 89 1018.8
20260831024204 67 333 0.0 0.0 0.00 0.05 0.05 89 1018.9
20260831023704 67 333 0.0 0.0 0.00 0.05 0.05 88 1018.9
20260831023203 67 333 0.0 0.0 0.00 0.05 0.05 88 1018.8
20260831022204 67 333 0.0 1.0 0.00 0.05 0.05 88 1018.9
20260831021204 67 333 0.0 2.0 0.00 0.05 0.05 88 1018.9
20260831020704 67 333 1.0 2.0 0.00 0.05 0.05 89 1018.9
20260831020204 67 333 0.0 3.0 0.00 0.05 0.05 89 1018.9
20260831015704 67 332 0.0 2.0 0.00 0.05 0.05 89 1018.8
20260831014704 67 233 0.0 1.0 0.00 0.05 0.05 89 1018.7
20260831014204 67 233 1.0 2.0 0.00 0.05 0.05 89 1018.6
20260831013204 68 232 0.0 0.0 0.00 0.05 0.05 89 1018.5
20260831012703 68 232 0.0 0.0 0.00 0.05 0.05 89 1018.5
20260831012204 68 232 0.0 0.0 0.00 0.05 0.05 88 1018.4
20260831011204 68 232 0.0 0.0 0.00 0.05 0.05 88 1018.3
20260831010704 68 232 0.0 0.0 0.00 0.05 0.05 88 1018.3
20260831010204 68 232 0.0 0.0 0.00 0.05 0.05 88 1018.2
20260831005704 68 232 0.0 2.0 0.00 0.05 0.05 88 1018.2
20260831005204 68 232 0.0 1.0 0.00 0.05 0.05 88 1018.1
20260831004705 68 232 0.0 1.0 0.00 0.05 0.05 88 1018.1
20260831004204 68 232 2.0 3.0 0.01 0.05 0.05 87 1017.9
20260831003703 68 293 0.0 2.0 0.01 0.05 0.05 88 1017.9
20260831002704 69 293 0.0 1.0 0.05 0.05 0.05 88 1017.7
20260831002204 69 293 0.0 1.0 0.05 0.05 0.05 87 1017.6
20260831001705 69 293 0.0 1.0 0.05 0.05 0.05 87 1017.5
20260831001203 70 293 0.0 1.0 0.05 0.05 0.05 87 1017.4
20260831000704 70 293 0.0 0.0 0.05 0.05 0.05 87 1017.3
20260831000204 70 293 0.0 1.0 0.05 0.05 0.05 87 1017.4
20260830235704 70 293 0.0 2.0 0.05 0.05 0.05 86 1017.3
20260830235204 70 293 0.0 2.0 0.05 0.05 0.05 86 1017.2
20260830234705 70 293 0.0 1.0 0.05 0.05 0.05 86 1017.2
20260830233704 71 293 0.0 3.0 0.04 0.04 0.04 85 1017.0
20260830232705 71 290 1.0 2.0 0.00 0.00 0.00 84 1016.9
20260830232204 71 290 0.0 0.0 0.00 0.00 0.00 83 1016.8
20260830231704 71 290 0.0 0.0 0.00 0.00 0.00 83 1016.6
20260830230704 71 290 0.0 0.0 0.00 0.00 0.00 83 1016.9
20260830225703 71 290 0.0 0.0 0.00 0.00 0.00 83 1017.0
20260830225204 72 290 0.0 1.0 0.00 0.00 0.00 83 1017.0
20260830224204 72 290 0.0 0.0 0.00 0.00 0.00 82 1017.0
20260830223204 72 290 0.0 0.0 0.00 0.00 0.00 81 1017.0
20260830222204 73 290 0.0 0.0 0.00 0.00 0.00 81 1017.1
20260830220704 73 290 0.0 0.0 0.00 0.00 0.00 80 1017.0
20260830220204 73 290 0.0 0.0 0.00 0.00 0.00 80 1016.9
20260830215704 73 290 0.0 0.0 0.00 0.00 0.00 80 1016.9
20260830215203 74 290 0.0 0.0 0.00 0.00 0.00 79 1016.9
20260830214704 74 290 0.0 0.0 0.00 0.00 0.00 78 1016.8
20260830214204 74 290 0.0 0.0 0.00 0.00 0.00 77 1016.9
20260830213704 74 290 0.0 0.0 0.00 0.00 0.00 76 1016.9
20260830213203 74 290 0.0 0.0 0.00 0.00 0.00 76 1016.9
20260830212704 74 290 1.0 1.0 0.00 0.00 0.00 75 1016.9
20260830212204 74 290 1.0 2.0 0.00 0.00 0.00 75 1017.0
20260830211704 75 290 0.0 0.0 0.00 0.00 0.00 75 1017.0
20260830211204 75 290 0.0 1.0 0.00 0.00 0.00 75 1017.0
20260830210704 75 290 0.0 1.0 0.00 0.00 0.00 75 1017.1
20260830210204 75 290 0.0 2.0 0.00 0.00 0.00 74 1017.1
20260830205704 74 290 1.0 3.0 0.00 0.00 0.00 74 1017.1
20260830205204 75 229 0.0 1.0 0.00 0.00 0.00 75 1017.1
20260830204704 75 229 1.0 2.0 0.00 0.00 0.00 74 1017.2
20260830204204 75 229 1.0 2.0 0.00 0.00 0.00 74 1017.1
20260830203704 75 229 1.0 2.0 0.00 0.00 0.00 73 1017.2
20260830203204 75 229 1.0 3.0 0.00 0.00 0.00 74 1017.2
20260830202705 75 229 1.0 2.0 0.00 0.00 0.00 73 1017.2
20260830202205 75 229 0.0 2.0 0.00 0.00 0.00 73 1017.2
20260830201704 75 229 1.0 2.0 0.00 0.00 0.00 73 1017.2
20260830201204 75 230 1.0 2.0 0.00 0.00 0.00 72 1017.4
20260830200703 75 230 1.0 3.0 0.00 0.00 0.00 72 1017.4
20260830200204 75 229 1.0 3.0 0.00 0.00 0.00 71 1017.4
20260830195704 76 239 1.0 3.0 0.00 0.00 0.00 71 1017.4
20260830195204 76 239 1.0 3.0 0.00 0.00 0.00 71 1017.4
20260830194704 76 238 1.0 6.0 0.00 0.00 0.00 71 1017.5
20260830194204 76 191 2.0 3.0 0.00 0.00 0.00 70 1017.5
20260830193204 76 229 1.0 3.0 0.00 0.00 0.00 71 1017.6
20260830192704 76 230 1.0 3.0 0.00 0.00 0.00 70 1017.7
20260830191704 76 230 1.0 3.0 0.00 0.00 0.00 71 1017.7
20260830191204 76 230 2.0 3.0 0.00 0.00 0.00 70 1017.7
20260830190704 76 247 1.0 3.0 0.00 0.00 0.00 70 1017.9
20260830190204 76 247 1.0 3.0 0.00 0.00 0.00 70 1017.9
20260830185704 75 247 1.0 3.0 0.00 0.00 0.00 70 1018.0
20260830185204 75 226 2.0 5.0 0.00 0.00 0.00 71 1018.0
20260830184704 75 248 2.0 3.0 0.00 0.00 0.00 70 1018.1
20260830184203 75 225 0.0 2.0 0.00 0.00 0.00 70 1018.2
20260830183704 76 225 1.0 2.0 0.00 0.00 0.00 70 1018.2
20260830183204 76 225 2.0 3.0 0.00 0.00 0.00 68 1018.3
20260830182704 76 226 2.0 3.0 0.00 0.00 0.00 69 1018.3
20260830182204 76 226 2.0 5.0 0.00 0.00 0.00 68 1018.4
20260830181204 76 210 1.0 5.0 0.00 0.00 0.00 68 1018.6
20260830180704 76 222 1.0 2.0 0.00 0.00 0.00 67 1018.5
20260830180204 76 222 1.0 3.0 0.00 0.00 0.00 67 1018.6
20260830174704 76 242 2.0 3.0 0.00 0.00 0.00 63 1018.8
20260830174204 77 228 1.0 3.0 0.00 0.00 0.00 64 1018.7
20260830173205 79 241 2.0 5.0 0.00 0.00 0.00 61 1018.6
20260830172703 78 215 2.0 6.0 0.00 0.00 0.00 61 1018.6
20260830172204 78 241 2.0 7.0 0.00 0.00 0.00 62 1018.8
20260830171704 77 224 1.0 3.0 0.00 0.00 0.00 64 1018.6
20260830171204 77 218 1.0 3.0 0.00 0.00 0.00 62 1018.7
20260830170704 78 237 1.0 3.0 0.00 0.00 0.00 62 1018.8
20260830170204 77 222 1.0 3.0 0.00 0.00 0.00 62 1018.8
20260830165204 76 221 2.0 3.0 0.00 0.00 0.00 62 1019.1
20260830164704 76 221 2.0 3.0 0.00 0.00 0.00 61 1019.2
20260830164204 76 215 2.0 5.0 0.00 0.00 0.00 61 1019.2
20260830163704 77 224 1.0 3.0 0.00 0.00 0.00 62 1019.3
20260830162704 76 224 1.0 3.0 0.00 0.00 0.00 65 1019.3
20260830162205 76 225 2.0 3.0 0.00 0.00 0.00 65 1019.4
20260830161704 75 239 1.0 3.0 0.00 0.00 0.00 65 1019.4
20260830160704 76 239 1.0 3.0 0.00 0.00 0.00 66 1019.6
20260830155704 75 244 1.0 3.0 0.00 0.00 0.00 66 1019.7
20260830154704 74 244 0.0 2.0 0.00 0.00 0.00 69 1019.7
20260830154204 74 244 1.0 3.0 0.00 0.00 0.00 66 1019.7
20260830153705 74 244 1.0 5.0 0.00 0.00 0.00 68 1019.9
20260830153204 74 244 2.0 3.0 0.00 0.00 0.00 67 1020.0
20260830152204 74 247 2.0 3.0 0.00 0.00 0.00 69 1020.2
20260830151705 74 250 1.0 3.0 0.00 0.00 0.00 69 1020.2
20260830151204 73 250 2.0 3.0 0.00 0.00 0.00 68 1020.1
20260830150704 73 250 1.0 2.0 0.00 0.00 0.00 68 1020.1
20260830150203 73 250 1.0 2.0 0.00 0.00 0.00 70 1020.2
20260830145704 73 251 1.0 3.0 0.00 0.00 0.00 71 1020.3
20260830145204 72 251 1.0 2.0 0.00 0.00 0.00 70 1020.3
20260830144204 72 251 0.0 1.0 0.00 0.00 0.00 71 1020.5
20260830143704 72 251 0.0 0.0 0.00 0.00 0.00 71 1020.5
20260830142704 71 251 1.0 2.0 0.00 0.00 0.00 73 1020.6
20260830142203 71 251 1.0 3.0 0.00 0.00 0.00 73 1020.6
20260830141704 71 251 1.0 3.0 0.00 0.00 0.00 74 1020.6
20260830141204 70 251 1.0 3.0 0.00 0.00 0.00 73 1020.6
20260830140705 70 251 1.0 2.0 0.00 0.00 0.00 74 1020.6
20260830140204 69 251 1.0 3.0 0.00 0.00 0.00 74 1020.7
20260830135704 69 251 0.0 3.0 0.00 0.00 0.00 75 1020.7
20260830135204 69 251 1.0 3.0 0.00 0.00 0.00 74 1020.7
20260830134703 69 251 1.0 2.0 0.00 0.00 0.00 74 1020.7
20260830134204 69 251 1.0 2.0 0.00 0.00 0.00 74 1020.7
20260830133704 69 251 0.0 2.0 0.00 0.00 0.00 75 1020.8
20260830133204 69 251 0.0 2.0 0.00 0.00 0.00 75 1021.0
20260830132704 68 251 1.0 2.0 0.00 0.00 0.00 77 1021.1
20260830131704 65 251 1.0 2.0 0.00 0.00 0.00 80 1021.1
20260830131203 65 251 0.0 0.0 0.00 0.00 0.00 81 1021.1
20260830130704 64 251 0.0 0.0 0.00 0.00 0.00 82 1021.2
20260830130203 63 251 0.0 1.0 0.00 0.00 0.00 82 1021.2
20260830125704 63 251 0.0 1.0 0.00 0.00 0.00 82 1021.3
20260830125204 63 251 0.0 2.0 0.00 0.00 0.00 82 1021.3
20260830124704 63 251 0.0 1.0 0.00 0.00 0.00 82 1021.3
20260830124204 63 251 1.0 2.0 0.00 0.00 0.00 83 1021.5
20260830123704 63 251 0.0 2.0 0.00 0.00 0.00 83 1021.5
20260830121704 61 250 1.0 1.0 0.00 0.00 0.00 87 1021.7
20260830120705 60 250 0.0 1.0 0.00 0.00 0.00 87 1021.6
20260830120204 60 250 1.0 1.0 0.00 0.00 0.00 87 1021.6
20260830115204 60 250 1.0 2.0 0.00 0.00 0.00 87 1021.6
20260830114705 60 250 0.0 1.0 0.00 0.00 0.00 88 1021.6
20260830114203 60 250 0.0 0.0 0.00 0.00 0.00 88 1021.8
20260830113703 59 250 0.0 0.0 0.00 0.00 0.00 89 1021.7
20260830112704 59 250 0.0 1.0 0.00 0.00 0.00 89 1021.8
20260830111704 58 250 0.0 0.0 0.00 0.00 0.00 89 1021.9
20260830111204 58 250 0.0 0.0 0.00 0.00 0.00 89 1021.8
20260830110203 57 250 0.0 0.0 0.00 0.00 0.00 89 1021.7
20260830105704 57 250 0.0 0.0 0.00 0.00 0.00 89 1021.8
20260830105204 57 250 0.0 0.0 0.00 0.00 0.00 89 1021.8
20260830104704 57 250 0.0 0.0 0.00 0.00 0.00 89 1021.9
20260830104204 57 250 0.0 0.0 0.00 0.00 0.00 89 1021.9
20260830103705 57 250 0.0 0.0 0.00 0.00 0.00 89 1021.9
20260830103204 57 250 0.0 0.0 0.00 0.00 0.00 89 1021.8
20260830102204 57 250 0.0 0.0 0.00 0.00 0.00 89 1021.8
20260830101704 57 250 0.0 0.0 0.00 0.00 0.00 89 1021.8
20260830101203 57 250 0.0 0.0 0.00 0.00 0.00 89 1021.7
20260830100704 57 250 0.0 0.0 0.00 0.00 0.00 89 1021.8
20260830100204 57 250 0.0 0.0 0.00 0.00 0.00 89 1021.7
20260830095204 57 250 0.0 0.0 0.00 0.00 0.00 89 1021.7
20260830094704 57 250 0.0 0.0 0.00 0.00 0.00 89 1021.7
20260830093704 57 250 0.0 0.0 0.00 0.00 0.00 89 1021.7
20260830093204 57 250 0.0 0.0 0.00 0.00 0.00 89 1021.9
20260830092704 57 250 0.0 0.0 0.00 0.00 0.00 89 1021.9
20260830092204 57 250 0.0 0.0 0.00 0.00 0.00 89 1021.9
20260830091704 57 250 0.0 0.0 0.00 0.00 0.00 89 1021.8
20260830091204 57 250 0.0 0.0 0.00 0.00 0.00 89 1021.9
20260830090704 57 250 0.0 0.0 0.00 0.00 0.00 89 1021.9
20260830090205 57 250 0.0 0.0 0.00 0.00 0.00 89 1021.9
20260830085704 57 250 0.0 0.0 0.00 0.00 0.00 89 1021.9
20260830085205 57 250 0.0 0.0 0.00 0.00 0.00 89 1022.0
20260830084706 57 250 0.0 0.0 0.00 0.00 0.00 89 1022.2
20260830083204 57 250 0.0 0.0 0.00 0.00 0.00 89 1022.2
20260830082704 57 250 0.0 0.0 0.00 0.00 0.00 89 1022.3
20260830082205 57 250 0.0 0.0 0.00 0.00 0.00 89 1022.2
20260830081704 57 250 0.0 0.0 0.00 0.00 0.00 89 1022.1
20260830080704 57 250 0.0 0.0 0.00 0.00 0.00 89 1022.0
20260830080204 57 250 0.0 0.0 0.00 0.00 0.00 89 1021.8
20260830075704 57 250 0.0 0.0 0.00 0.00 0.00 89 1021.9
20260830075204 56 250 0.0 0.0 0.00 0.00 0.00 89 1021.9
20260830074704 56 250 0.0 0.0 0.00 0.00 0.00 89 1021.9
20260830074205 56 250 0.0 0.0 0.00 0.00 0.00 89 1021.9
20260830073704 56 250 0.0 0.0 0.00 0.00 0.00 89 1022.0
20260830072705 56 250 0.0 0.0 0.00 0.00 0.00 89 1021.9
20260830072205 56 250 0.0 0.0 0.00 0.00 0.00 89 1021.8
20260830071704 56 250 0.0 0.0 0.00 0.00 0.00 89 1021.8
20260830071205 56 250 0.0 0.0 0.00 0.00 0.00 89 1021.8
20260830070204 56 250 0.0 0.0 0.00 0.00 0.00 89 1022.1
20260830065204 55 250 0.0 0.0 0.00 0.00 0.00 89 1022.2
20260830064703 55 250 0.0 0.0 0.00 0.00 0.00 89 1022.3
20260830064204 56 250 0.0 0.0 0.00 0.00 0.00 89 1022.3
20260830063704 56 250 0.0 0.0 0.00 0.00 0.00 89 1022.3
20260830063203 56 250 0.0 1.0 0.00 0.00 0.00 89 1022.3
20260830062704 55 250 0.0 0.0 0.00 0.00 0.00 89 1022.3
20260830061704 55 250 0.0 1.0 0.00 0.00 0.00 89 1022.3
20260830061203 55 250 0.0 0.0 0.00 0.00 0.00 88 1022.3
20260830060704 55 250 0.0 0.0 0.00 0.00 0.00 88 1022.2
20260830060204 55 250 0.0 0.0 0.00 0.00 0.00 88 1022.2
20260830055704 55 250 0.0 0.0 0.00 0.00 0.00 88 1022.1
20260830055204 55 250 0.0 0.0 0.00 0.00 0.00 88 1022.0
20260830054704 55 250 0.0 0.0 0.00 0.00 0.00 88 1021.9
20260830054203 55 250 0.0 0.0 0.00 0.00 0.00 88 1021.9
20260830053704 55 250 0.0 0.0 0.00 0.00 0.00 88 1021.9
20260830052703 55 250 0.0 0.0 0.00 0.00 0.00 88 1021.9
20260830052203 55 250 0.0 0.0 0.00 0.00 0.00 88 1021.9
20260830051704 55 250 0.0 0.0 0.00 0.00 0.00 88 1021.9
20260830050704 56 250 0.0 0.0 0.00 0.00 0.00 88 1022.0
20260830050204 56 250 0.0 0.0 0.00 0.00 0.00 88 1022.1
20260830045704 56 250 0.0 0.0 0.00 0.00 0.00 88 1022.1
20260830045205 56 250 0.0 0.0 0.00 0.00 0.00 88 1022.2
20260830044204 56 250 0.0 0.0 0.00 0.00 0.00 88 1022.2
20260830043704 56 250 0.0 0.0 0.00 0.00 0.00 88 1022.3
20260830043204 56 250 0.0 0.0 0.00 0.00 0.00 88 1022.3
20260830041704 56 250 0.0 0.0 0.00 0.00 0.00 87 1022.2
20260830041204 56 250 0.0 0.0 0.00 0.00 0.00 87 1022.1
20260830040704 56 250 0.0 0.0 0.00 0.00 0.00 87 1022.1
20260830035204 56 250 0.0 0.0 0.00 0.00 0.00 87 1021.9
20260830034704 57 250 0.0 0.0 0.00 0.00 0.00 87 1022.0
20260830034204 57 250 0.0 0.0 0.00 0.00 0.00 87 1022.0
20260830033704 57 250 0.0 0.0 0.00 0.00 0.00 87 1022.0
20260830033205 57 250 0.0 0.0 0.00 0.00 0.00 87 1022.0
20260830032704 57 250 0.0 0.0 0.00 0.00 0.00 87 1022.0
20260830032204 57 250 0.0 0.0 0.00 0.00 0.00 87 1021.9